DW4174 Weather Reports


time (UTC)temp
C
wind
direction
speed
KPH
gust
KPH
rain 1hr
cm
rain 24hr
cm
rain mn
cm
humidity
%
barometer
mb
20260905174629 35 148 3.2 6.4 0.00 0.00 0.00 32 1012.7
20260905173729 35 133 4.8 9.7 0.00 0.00 0.00 32 1012.7
20260905172829 35 81 1.6 11.3 0.00 0.00 0.00 32 1012.6
20260905171929 35 61 3.2 6.4 0.00 0.00 0.00 34 1012.6
20260905171029 35 76 3.2 9.7 0.00 0.00 0.00 32 1012.7
20260905170129 35 101 1.6 6.4 0.00 0.00 0.00 34 1012.7
20260905164329 33 98 1.6 4.8 0.00 0.00 0.00 35 1012.6
20260905163429 34 97 1.6 11.3 0.00 0.00 0.00 35 1012.6
20260905162529 33 102 3.2 6.4 0.00 0.00 0.00 37 1012.5
20260905160729 33 238 1.6 3.2 0.00 0.00 0.00 39 1012.6
20260905155829 33 205 1.6 4.8 0.00 0.00 0.00 40 1012.7
20260905154929 32 130 1.6 4.8 0.00 0.00 0.00 41 1012.6
20260905153129 32 170 1.6 4.8 0.00 0.00 0.00 43 1012.4
20260905152229 31 177 1.6 4.8 0.00 0.00 0.00 44 1012.3
20260905151329 31 178 1.6 3.2 0.00 0.00 0.00 45 1012.2
20260905150429 31 181 1.6 4.8 0.00 0.00 0.00 45 1012.2
20260905144629 31 93 0.0 8.0 0.00 0.00 0.00 44 1012.2
20260905143729 31 37 0.0 3.2 0.00 0.00 0.00 42 1012.2
20260905142829 30 0 0.0 0.0 0.00 0.00 0.00 44 1012.1
20260905141929 30 0 0.0 0.0 0.00 0.00 0.00 44 1012.0
20260905141029 30 0 0.0 0.0 0.00 0.00 0.00 46 1011.9
20260905135229 28 0 0.0 0.0 0.00 0.00 0.00 48 1011.8
20260905134329 28 0 0.0 0.0 0.00 0.00 0.00 48 1011.6
20260905133429 27 0 0.0 0.0 0.00 0.00 0.00 50 1011.4
20260905131629 27 0 0.0 0.0 0.00 0.00 0.00 50 1011.3
20260905130729 27 0 0.0 0.0 0.00 0.00 0.00 50 1011.2
20260905125829 27 0 0.0 0.0 0.00 0.00 0.00 49 1011.1
20260905124929 27 0 0.0 0.0 0.00 0.00 0.00 48 1011.0
20260905124028 27 0 0.0 0.0 0.00 0.00 0.00 49 1011.1
20260905122228 28 0 0.0 0.0 0.00 0.00 0.00 47 1011.0
20260905121328 28 36 0.0 1.6 0.00 0.00 0.00 47 1010.9
20260905120429 28 36 0.0 1.6 0.00 0.00 0.00 47 1010.7
20260905115529 27 0 0.0 0.0 0.00 0.00 0.00 48 1010.7
20260905114628 28 0 0.0 0.0 0.00 0.00 0.00 47 1010.7
20260905113729 28 37 0.0 1.6 0.00 0.00 0.00 46 1010.7
20260905112829 28 36 0.0 1.6 0.00 0.00 0.00 47 1010.6
20260905111928 28 0 0.0 0.0 0.00 0.00 0.00 46 1010.6
20260905111028 28 0 0.0 0.0 0.00 0.00 0.00 46 1010.6
20260905110128 28 0 0.0 0.0 0.00 0.00 0.00 45 1010.5
20260905105229 28 0 0.0 0.0 0.00 0.00 0.00 45 1010.5
20260905104328 28 0 0.0 0.0 0.00 0.00 0.00 44 1010.5
20260905103428 28 0 0.0 0.0 0.00 0.00 0.00 44 1010.4
20260905102528 29 0 0.0 0.0 0.00 0.00 0.00 44 1010.3
20260905101628 30 0 0.0 0.0 0.00 0.00 0.00 43 1010.4
20260905100728 30 0 0.0 0.0 0.00 0.00 0.00 42 1010.3
20260905094028 30 37 0.0 3.2 0.00 0.00 0.00 41 1010.3
20260905093128 30 37 0.0 3.2 0.00 0.00 0.00 41 1010.3
20260905092228 30 0 0.0 0.0 0.00 0.00 0.00 40 1010.3
20260905091328 30 37 0.0 3.2 0.00 0.00 0.00 40 1010.3
20260905085528 30 0 0.0 0.0 0.00 0.00 0.00 41 1010.2
20260905084628 30 0 0.0 0.0 0.00 0.00 0.00 41 1010.3
20260905083728 30 0 0.0 0.0 0.00 0.00 0.00 41 1010.3
20260905081928 30 0 0.0 0.0 0.00 0.00 0.00 39 1010.3
20260905080128 30 0 0.0 0.0 0.00 0.00 0.00 39 1010.3
20260905075228 30 0 0.0 0.0 0.00 0.00 0.00 39 1010.3
20260905074328 31 0 0.0 0.0 0.00 0.00 0.00 37 1010.3
20260905073428 31 276 1.6 1.6 0.00 0.00 0.00 37 1010.2
20260905072528 32 276 1.6 3.2 0.00 0.00 0.00 36 1010.2
20260905071628 32 275 0.0 4.8 0.00 0.00 0.00 35 1010.2
20260905070728 32 275 0.0 4.8 0.00 0.00 0.00 36 1010.2
20260905065828 32 276 1.6 4.8 0.00 0.00 0.00 35 1010.1
20260905064928 32 276 1.6 6.4 0.00 0.00 0.00 34 1010.2
20260905064028 32 263 1.6 4.8 0.00 0.00 0.00 34 1010.1
20260905063128 32 258 1.6 4.8 0.00 0.00 0.00 34 1010.0
20260905060428 32 270 3.2 6.4 0.00 0.00 0.00 34 1009.9
20260905055528 33 275 3.2 6.4 0.00 0.00 0.00 34 1009.9
20260905054628 33 277 3.2 4.8 0.00 0.00 0.00 34 1009.9
20260905053728 33 277 3.2 6.4 0.00 0.00 0.00 34 1009.9
20260905052828 33 276 1.6 4.8 0.00 0.00 0.00 33 1009.7
20260905051928 33 277 3.2 6.4 0.00 0.00 0.00 33 1009.7
20260905051028 33 278 3.2 9.7 0.00 0.00 0.00 33 1009.7
20260905050128 33 280 3.2 9.7 0.00 0.00 0.00 32 1009.7
20260905045228 33 271 3.2 6.4 0.00 0.00 0.00 32 1009.6
20260905044328 34 259 1.6 6.4 0.00 0.00 0.00 31 1009.5
20260905043428 34 258 3.2 4.8 0.00 0.00 0.00 31 1009.5
20260905041628 34 262 3.2 6.4 0.00 0.00 0.00 29 1009.4
20260905040728 35 256 4.8 9.7 0.00 0.00 0.00 29 1009.3
20260905035828 35 250 4.8 11.3 0.00 0.00 0.00 28 1009.3
20260905034928 35 252 6.4 11.3 0.00 0.00 0.00 28 1009.1
20260905034028 35 262 6.4 12.9 0.00 0.00 0.00 27 1009.1
20260905033128 35 265 6.4 12.9 0.00 0.00 0.00 27 1009.0
20260905032228 35 276 4.8 12.9 0.00 0.00 0.00 26 1008.8
20260905031328 36 281 4.8 16.1 0.00 0.00 0.00 26 1008.8
20260905030428 36 288 6.4 11.3 0.00 0.00 0.00 26 1008.6
20260905025528 36 282 4.8 14.5 0.00 0.00 0.00 27 1008.4
20260905024628 36 303 3.2 14.5 0.00 0.00 0.00 32 1008.4
20260905021028 36 85 4.8 8.0 0.00 0.00 0.00 32 1007.8
20260905015228 36 64 1.6 11.3 0.00 0.00 0.00 32 1007.7
20260905014328 36 325 3.2 4.8 0.00 0.00 0.00 30 1007.7
20260905013428 37 331 3.2 6.4 0.00 0.00 0.00 30 1007.7
20260905012528 37 3 3.2 8.0 0.00 0.00 0.00 30 1007.7
20260905011628 37 339 1.6 9.7 0.00 0.00 0.00 30 1007.6
20260905010728 37 36 0.0 6.4 0.00 0.00 0.00 29 1007.5
20260905004028 38 256 3.2 11.3 0.00 0.00 0.00 29 1007.6
20260905003128 38 281 1.6 9.7 0.00 0.00 0.00 29 1007.7
20260905002227 37 246 1.6 3.2 0.00 0.00 0.00 30 1007.7
20260905001328 37 263 3.2 11.3 0.00 0.00 0.00 30 1007.7
20260905000428 37 17 4.8 8.0 0.00 0.00 0.00 30 1007.8
20260904235528 38 315 3.2 14.5 0.00 0.00 0.00 29 1007.8
20260904234628 38 269 3.2 8.0 0.00 0.00 0.00 29 1007.8
20260904232828 38 195 4.8 11.3 0.00 0.00 0.00 28 1007.9
20260904231927 38 239 3.2 11.3 0.00 0.00 0.00 28 1008.0
20260904231028 38 224 3.2 8.0 0.00 0.00 0.00 30 1008.1
20260904230128 37 171 4.8 14.5 0.00 0.00 0.00 30 1008.1
20260904224327 38 197 6.4 14.5 0.00 0.00 0.00 30 1008.2
20260904223427 38 165 6.4 16.1 0.00 0.00 0.00 30 1008.5
20260904222527 38 214 6.4 11.3 0.00 0.00 0.00 29 1008.4
20260904221627 38 198 3.2 19.3 0.00 0.00 0.00 30 1008.5
20260904220727 37 229 3.2 8.0 0.00 0.00 0.00 31 1008.6
20260904215827 37 227 8.0 17.7 0.00 0.00 0.00 31 1008.7
20260904214927 38 162 8.0 19.3 0.00 0.00 0.00 31 1009.0
20260904214027 38 164 6.4 22.5 0.00 0.00 0.00 31 1009.1
20260904213127 38 170 4.8 16.1 0.00 0.00 0.00 30 1009.1
20260904212227 37 186 4.8 11.3 0.00 0.00 0.00 31 1009.2
20260904211327 37 164 6.4 11.3 0.00 0.00 0.00 31 1009.4
20260904210427 37 194 8.0 20.9 0.00 0.00 0.00 30 1009.6
20260904205527 38 171 8.0 17.7 0.00 0.00 0.00 30 1009.5
20260904204627 39 202 6.4 19.3 0.00 0.00 0.00 29 1009.7
20260904203727 39 182 8.0 19.3 0.00 0.00 0.00 30 1009.9
20260904202827 38 245 8.0 19.3 0.00 0.00 0.00 30 1010.0
20260904201927 38 173 9.7 20.9 0.00 0.00 0.00 33 1010.1
20260904201027 37 156 9.7 27.4 0.00 0.00 0.00 33 1010.2
20260904200127 37 166 8.0 17.7 0.00 0.00 0.00 32 1010.4
20260904195227 38 174 6.4 22.5 0.00 0.00 0.00 33 1010.5
20260904194327 37 170 6.4 22.5 0.00 0.00 0.00 35 1010.7
20260904193427 37 179 6.4 22.5 0.00 0.00 0.00 33 1010.8
20260904192527 37 182 6.4 16.1 0.00 0.00 0.00 36 1010.8
20260904191627 37 153 8.0 16.1 0.00 0.00 0.00 37 1011.0
20260904190727 36 161 4.8 17.7 0.00 0.00 0.00 36 1011.2
20260904184927 36 196 6.4 11.3 0.00 0.00 0.00 39 1011.5
20260904184027 36 176 6.4 14.5 0.00 0.00 0.00 37 1011.7
20260904182227 35 167 8.0 14.5 0.00 0.00 0.00 40 1011.9
20260904181327 36 145 8.0 22.5 0.00 0.00 0.00 39 1012.1
20260904175527 35 131 8.0 16.1 0.00 0.00 0.00 42 1012.2